Location: Ehrke Reservoir
(40.0279°N, 99.6641°W)
Time: 12:30:03
(UTC+00:00)

CSL-04 Rocket - Pass Details

Date: 20 January 2020
Orbit: 806 x 860 km, 99.0° (Epoch: 16 February)

Event Time Altitude Azimuth Distance (km) Brightness Sun altitude
Rises 01:13:18 0° 163° (SSE) 3,372 6.8 -17.3°
Reaches altitude 10° 01:15:38 10° 163° (SSE) 2,449 6.1 -17.7°
Maximum altitude 01:21:05 86° 77° (ENE) 856 3.6 -18.8°
Drops below altitude 10° 01:26:39 10° 347° (NNW) 2,495 6.2 -19.8°
Sets 01:29:02 0° 347° (NNW) 3,439 6.9 -20.3°
